Regional Weather Roundup
Issued by NWS

Home | Current Version | Previous Version | Text Only | Print | Product List | Glossary On
Versions: 1 2 3 4 5 6 7 8 9 10 11 12 13 14 15 16 17 18 19 20 21 22 23 24 25 26 27 28 29 30 31 32 33 34 35 36 37 38 39 40 41 42 43 44 45 46 47 48 49 50
000
ASUS44 KFWD 181915
RWRTX
NORTH TEXAS HOURLY WEATHER ROUNDUP
NATIONAL WEATHER SERVICE FORT WORTH TX
200 PM CDT SAT APR 18 2015

NOTE: "FAIR" INDICATES FEW OR NO CLOUDS BELOW 12,000 FEET WITH NO
SIGNIFICANT WEATHER AND/OR OBSTRUCTIONS TO VISIBILITY.

TXZ118-119-182000-
DALLAS/FORT WORTH METROPLEX

CITY           SKY/WX    TMP DP  RH WIND       PRES   REMARKS
DFW AIRPORT    PTSUNNY   77  63  61 S5        29.83F
DALLAS LOVE    PTSUNNY   78  62  57 CALM      29.83F
FTW MEACHAM    PTSUNNY   76  63  64 CALM      29.84F
DAL-EXECUTIVE  PTSUNNY   78  65  63 CALM      29.83F
FTW-ALLIANCE   PTSUNNY   77  63  61 CALM      29.84F
FTW-NAS-JRB    PTSUNNY   77  64  64 CALM      29.88F
FTW-SPINKS     PTSUNNY   77  63  61 CALM      29.87
ARLINGTON      SUNNY     78  60  53 VRB3      29.84F
GRAND PRAIRIE  MOSUNNY   79  63  57 SW3       29.85F
ADDISON        PTSUNNY   77  63  61 CALM      29.86F
MESQUITE       PTSUNNY   75  63  64 SE3       29.85F
LANCASTER      CLOUDY    75  62  64 CALM      29.85F
$$

TXZ091>094-102>105-117-120-121-131>134-182000-
NORTH CENTRAL TEXAS

CITY           SKY/WX    TMP DP  RH WIND       PRES   REMARKS
SHRMAN/DENISON PTSUNNY   78  66  66 E5        29.86F
GAINESVILLE    PTSUNNY   73  60  63 SE5       29.88F
BOWIE          PTSUNNY   72  62  72 S5        29.87F
BRIDGEPORT     PTSUNNY   71  65  80 SE3       29.88F
DECATUR        PTSUNNY   73  62  68 NW3       29.87F
DENTON         MOSUNNY   76  62  62 CALM      29.85F
MCKINNEY       PTSUNNY   77  63  61 S7        29.85F
GREENVILLE     MOSUNNY   77  59  53 W3        29.85F
ROCKWALL       PTSUNNY   75  64  68 CALM      29.84F
TERRELL        PTSUNNY   77  63  61 CALM      29.85F
WAXAHACHIE     PTSUNNY   74  66  74 W5        29.86F
CLEBURNE       CLOUDY    75  66  73 SW3       29.87F
GRANBURY       PTSUNNY   76  63  63 E3        29.86F
$$

TXZ083>090-098>101-113>116-127>130-139>142-154-155-182000-
WESTERN NORTH TEXAS

CITY           SKY/WX    TMP DP  RH WIND       PRES   REMARKS
WICHITA FALLS  MOSUNNY   74  63  68 SE13      29.84F
WF-KICKAPOO    MOSUNNY   75  64  67 E10       29.87F
VERNON         PTSUNNY   73  58  57 SW3       29.84F
ABILENE        MOSUNNY   77  58  51 SW9       29.86F
ABILENE-DYESS  MOSUNNY   76  58  53 NW3       29.83F
BRECKENRIDGE   MOSUNNY   81  57  44 CALM      29.83F HAZE
GRAHAM         PTSUNNY   74  65  72 SE7       29.83F
MINERAL WELLS  CLOUDY    72  63  73 E6        29.84F
STEPHENVILLE   PTSUNNY   76  61  60 CALM      29.87F
COMANCHE       MOSUNNY   77  63  62 SW3       29.84F
BROWNWOOD      SUNNY     75  63  64 CALM      29.84F
COLEMAN        MOSUNNY   78  62  58 CALM      29.85F
BRADY          MOSUNNY   77  61  57 SE3       29.84F
$$

TXZ143>147-156>162-174-175-182000-
CENTRAL TEXAS

CITY           SKY/WX    TMP DP  RH WIND       PRES   REMARKS
WACO           CLOUDY    75  63  66 CALM      29.84F
WACO-TSTC      MOSUNNY   75  64  69 CALM      29.84F
WACO-MCGREGOR  CLOUDY    75  63  64 CALM      29.85F
HILLSBORO      PTSUNNY   73  63  68 CALM      29.86F
CORSICANA      PTSUNNY   78  65  63 W5        29.85F
MEXIA          CLOUDY    73  64  73 SW7       29.85F
HEARNE         CLOUDY    75  67  76 CALM      29.86F
CAMERON        CLOUDY    76  67  75 N7        29.84F
TEMPLE         PTSUNNY   75  61  60 N3        29.84F
KILLEEN        PTSUNNY   75  63  67 N5        29.84F
FORT HOOD      PTSUNNY   75  63  64 NE3       29.83F
GATESVILLE     MOSUNNY   72  63  73 CALM      29.87F
HAMILTON       SUNNY     75  62  65 SE12G17   29.85F
LAMPASAS       MOSUNNY   76  65  70 NE5       29.84F
$$

TXZ095>097-106>112-122>126-135>138-148>153-164>167-182000-
EAST TEXAS

CITY           SKY/WX    TMP DP  RH WIND       PRES   REMARKS
PARIS          PTSUNNY   73  61  64 MISG      29.86F
SULPHUR SPRNGS   N/A     76  64  66 NE5       29.86F
MOUNT PLEASANT CLOUDY    74  66  76 NE5       29.86F
GILMER         CLOUDY    74  67  78 CALM      29.83F
TYLER          CLOUDY    74  66  76 N9        29.83F
LONGVIEW       CLOUDY    78  67  68 NE5       29.83F
MARSHALL       CLOUDY    76  67  75 CALM      29.86S
ATHENS         MOSUNNY   75  63  64 CALM      29.82F
PALESTINE      CLOUDY    79  69  71 CALM      29.85F
JACKSONVILLE   PTSUNNY   76  65  69 CALM      29.86F
HENDERSON      CLOUDY    76  64  67 CALM      29.84S
NACOGDOCHES    CLOUDY    75  66  73 S12       29.85S
LUFKIN         CLOUDY    78  68  71 S6        29.83F
$$

SUPPLEMENTAL OBSERVATIONS (CENTRAL)

CITY           SKY/WX    TMP DP  RH WIND       PRES   REMARKS
LAKE TEXOMA      N/A     75  61  60 N1          N/A
CADDO GRASSLND   N/A     77  63  61 E2          N/A
PAT MAYSE LAKE   N/A    N/A N/A N/A NE7         N/A
GREENVILLE       N/A     75  59  57 NE1G9       N/A
ATHENS           N/A     81  64  57 S3          N/A
LAKE LIMESTONE   N/A     77  64  65 W6          N/A
MCGREGOR         N/A     75  63  64 N3          N/A
TEMPLE           N/A     75  63  64 E2          N/A
$$

SUPPLEMENTAL OBSERVATIONS (WEST)

CITY           SKY/WX    TMP DP  RH WIND       PRES   REMARKS
MILLERS CREEK    N/A     79  59  50 SW8         N/A
POSSUM KINGDOM   N/A     75  63  64 SE7         N/A
LBJ GRASSLAND    N/A     75  64  69 W2          N/A
GRANBURY         N/A     77  63  61 E3G12       N/A
COMANCHE         N/A     79  63  57 SE7         N/A
HAMBY            N/A     79  63  57 W7          N/A
IVIE RESERVOIR   N/A     79  59  50 NW5         N/A
COLORADO BEND    N/A     75  61  60 E3          N/A
$$

SUPPLEMENTAL OBSERVATIONS (EAST)

CITY           SKY/WX    TMP DP  RH WIND       PRES   REMARKS
CLARKSVILLE      N/A     73  68  83 NE7         N/A
TEXARKANA        N/A     70  64  83 NE3         N/A
LINDEN           N/A     70  66  88 NE1         N/A
CADDO LAKE       N/A     73  66  78 NE3         N/A
GILMER           N/A     77  68  73 E2          N/A
HENDERSON        N/A     77  63  61 NE2         N/A
LUFKIN           N/A     79  68  69 MISG        N/A
N SABINE NF      N/A     75  70  83 MISG        N/A
S SABINE NF      N/A     72  64  78 CALM        N/A
$$

SUPPLEMENTAL OBSERVATIONS ARE A COLLECTION OF AUTOMATED INSTRUMENTS
THAT ARE MAINTAINED BY A VARIETY OF FEDERAL AND STATE AGENCIES.
CERTAIN ELEMENTS...SUCH AS HUMIDITY VALUES AND SUSTAINED WIND
SPEEDS...MAY BE APPROXIMATED.




USA.gov is the U.S. government's official web portal to all federal, state and local government web resources and services.